Regional Weather Roundup
Issued by NWS Sioux Falls, SD

Home | Current Version | Previous Version | Text Only | Print | Product List | Glossary On
Versions: 1 2 3 4 5 6 7 8 9 10 11 12 13 14 15 16 17 18 19 20 21 22 23 24 25 26 27 28 29 30 31 32 33 34 35 36 37 38 39 40 41 42 43 44 45 46 47 48 49 50
000
ASUS43 KFSD 181910
RWRFSD

WEATHER ROUNDUP FOR SE SOUTH DAKOTA/SW MINNESOTA/NW IOWA
NATIONAL WEATHER SERVICE SIOUX FALLS SD
200 PM CDT SAT APR 18 2015

NOTE: "FAIR" INDICATES FEW OR NO CLOUDS BELOW 12,000 FEET WITH NO
SIGNIFICANT WEATHER AND OR OBSTRUCTIONS TO VISIBILITY.


SDZ038>040-050-052>070-182000-
SOUTHEAST SOUTH DAKOTA

CITY           SKY/WX    TMP DP  RH WIND       PRES   REMARKS
BROOKINGS      CLOUDY    68  36  30 SE18      29.93F
CHAMBERLAIN    CLOUDY    55  51  88 E10       29.88F
HURON          CLOUDY    64  39  39 S17G24    29.90F
MADISON        FAIR      63  43  48 SE15      29.93F
MITCHELL       LGT RAIN  53  51  93 NE9       29.90F FOG
SIOUX FALLS    LGT RAIN  59  50  72 S7        29.93S
WINNER         CLOUDY    58  51  78 SE8       29.88F
YANKTON        CLOUDY    55  52  88 E5        29.88S
$$

MNZ071-072-080-081-089-090-097-098-182000-
SOUTHWEST MINNESOTA

CITY           SKY/WX    TMP DP  RH WIND       PRES   REMARKS
FAIRMONT       CLOUDY    68  36  30 S17       29.95F
JACKSON        CLOUDY    64  46  52 SE17      29.96F
LUVERNE        CLOUDY    68  48  49 S13G20    29.93S
MARSHALL       CLOUDY    73  32  21 SE14G24   29.92F
MONTEVIDEO     MOSUNNY   73  27  17 S17G24    29.95F
PIPESTONE      CLOUDY    66  36  32 SE17      29.93S
REDWOOD FALLS  PTSUNNY   73  31  21 SE10G23   29.94F
TRACY          CLOUDY    73  38  27 SE18G25   29.93F
WORTHINGTON    CLOUDY    64  46  52 SE20      29.94S
$$

IAZ001>003-012>014-020>022-031-032-NEZ013-014-SDZ071-182000-
NORTHWEST IOWA

CITY           SKY/WX    TMP DP  RH WIND       PRES   REMARKS
CHEROKEE       LGT RAIN  57  57 100 NW3       29.95S
DENISON        LGT RAIN  57  57 100 NE7       29.91F
ESTHERVILLE    LGT RAIN  57  53  86 SE12      29.95F
LE MARS        DRIZZLE   59  59 100 CALM      29.94F
ORANGE CITY    RAIN     N/A N/A N/A S5        29.94F
SHELDON        LGT RAIN  59  59 100 SE16      29.94R
SIOUX CITY     LGT RAIN  61  57  87 E18       29.87F
SPENCER        LGT RAIN  60  55  83 SE13      29.94F
STORM LAKE     LGT RAIN  59  55  88 E6        29.92F
$$

ABBREVIATIONS USED IN REMARKS
   TC - TEMPERATURE IN CELSIUS
  WCI - WIND CHILL INDEX
   HX - HEAT INDEX
  VSB - VISIBILITY




USA.gov is the U.S. government's official web portal to all federal, state and local government web resources and services.